Regional Weather Roundup
Issued by NWS

Home | Current Version | Previous Version | Text Only | Print | Product List | Glossary On
Versions: 1 2 3 4 5 6 7 8 9 10 11 12 13 14 15 16 17 18 19 20 21 22 23 24 25 26 27 28 29 30 31 32 33 34 35 36 37 38 39 40 41 42 43 44 45 46 47 48 49 50
000
ASUS44 KOUN 232210
RWROK

WEATHER ROUNDUP FOR OKLAHOMA
NATIONAL WEATHER SERVICE NORMAN OK
500 PM CDT THU MAR 23 2017

NOTE: "FAIR" INDICATES FEW OR NO CLOUDS BELOW 12,000 FEET WITH NO
      SIGNIFICANT WEATHER AND/OR OBSTRUCTIONS TO VISIBILITY.

OKZ001>007-009>012-014-015-017-232300-
NORTHWEST OKLAHOMA AND THE PANHANDLE

CITY           SKY/WX    TMP DP  RH WIND       PRES   REMARKS
GAGE           SUNNY     84  45  25 S39G49    29.65F
GUYMON         SUNNY     86  45  23 S29G43    29.52F
ENID/WOODRING  MOSUNNY   84  52  32 S28G41    29.73F
$$

OKZ016-021>023-033>039-044-045-232300-
SOUTHWEST OKLAHOMA

CITY           SKY/WX    TMP DP  RH WIND       PRES   REMARKS
LAWTON/REGL    SUNNY     86  48  26 MISG      29.76F
LAWTON/FT SILL SUNNY     85  53  33 S29G38    29.75F
FREDERICK      SUNNY     86  47  25 S36G44    29.71F
CLINTON        SUNNY     81  47  30 S33G46    29.72F
HOBART         SUNNY     83  48  29 S37G47    29.72F
ALTUS AFB      SUNNY     84  46  26 S30G44    29.71F
$$

OKZ018>020-024>031-232300-
CENTRAL OKLAHOMA

CITY           SKY/WX    TMP DP  RH WIND       PRES   REMARKS
OKLAHOMA CITY  MOSUNNY   83  47  28 S28G44    29.78F
OKC/WILEY POST SUNNY     84  48  28 S36G46    29.77F
OKC/TINKER AFB SUNNY     83  47  28 S25G35    29.79F
STILLWATER     SUNNY     85  46  25 S26G36    29.77F
GUTHRIE        SUNNY     83  48  29 S28G45    29.77F
$$

OKZ008-013-054>072-232300-
NORTHEAST OKLAHOMA

CITY           SKY/WX    TMP DP  RH WIND       PRES   REMARKS
TULSA          SUNNY     81  54  39 S22G31    29.82F
TULSA/JONES    SUNNY     83  53  35 S18G26    29.83F
PONCA CITY     SUNNY     84  49  29 S25G37    29.75F
BARTLESVILLE   SUNNY     80  50  34 S26G33    29.83F
MUSKOGEE       SUNNY     81  54  39 S22G31    29.89F
$$

OKZ032-040>043-046>053-073>077-232300-
SOUTH CENTRAL/SOUTHEAST OKLAHOMA

CITY           SKY/WX    TMP DP  RH WIND       PRES   REMARKS
ARDMORE/DWNTWN SUNNY     82  43  24 SW18G30   29.86F
MCALESTER      SUNNY     84  48  28 S20G31    29.90F
$$




USA.gov is the U.S. government's official web portal to all federal, state and local government web resources and services.